Huntsville, AL

2:06 PM CDT on September 21, 2017 (GMT -0500)
Huntsville International

Weather History for KHSV - June, 2013

Change the Weather History Date:

Wednesday, June 12, 2013

  Actual Average Record
Temperature  
Mean Temperature 86 °F 77 °F  
Max Temperature 97 °F 88 °F 101 °F (1926)
Min Temperature 74 °F 67 °F 53 °F (1988)
Degree Days  
Heating Degree Days 0 0  
Month to date heating degree days 0 0  
Since 1 June heating degree days 0 0  
Since 1 July heating degree days 3042 3001  
Cooling Degree Days 21 12  
Month to date cooling degree days 150 131  
Year to date cooling degree days 383 394  
Since 1 June cooling degree days 150 131  
Growing Degree Days 35 (Base 50)    
Moisture  
Dew Point 71 °F    
Average Humidity 62    
Maximum Humidity 94    
Minimum Humidity 30    
Precipitation  
Precipitation 0.00 in 0.14 in 1.90 in (1964)
Month to date precipitation 0.83 1.70  
Year to date precipitation 29.95 26.07  
Snow  
Snow 0.00 in - - ()
Month to date snowfall 0.0  
Since 1 June snowfall 0.0  
Since 1 July snowfall 0.7  
Snow Depth 0.00 in    
Sea Level Pressure  
Sea Level Pressure 30.01 in    
Wind  
Wind Speed 5 mph (WSW)    
Max Wind Speed 13 mph    
Max Gust Speed 20 mph    
Visibility 10 miles    
Events      
T = Trace of Precipitation, MM = Missing Value Source: NWS Daily Summary

Daily Weather History Graph

Daily Weather History Graph

Search for Another Location

Airport or City:

Trip Planner

Search our weather history database for the weather conditions in past years. The results will help you decide how hot, cold, wet, or windy it might be!

Date:

Astronomy

Jun. 12, 2013 Rise Set
Actual Time 5:33 AM CDT 8:00 PM CDT
Civil Twilight 5:04 AM CDT 8:30 PM CDT
Nautical Twilight 4:27 AM CDT 9:06 PM CDT
Astronomical Twilight 3:47 AM CDT 9:46 PM CDT
Moon 9:05 AM CDT (6/12) 10:44 PM CDT (6/12)
Length of Visible Light 15h 26m
Length of Day
14h 27m
Waxing Crescent, 14% of the Moon is Illuminated
Jun 12
Waxing Crescent
Jun 16
First Quarter
Jun 23
Full
Jun 29
Last Quarter
Jul 8
New

Hourly Weather History & Observations

Time (CDT) Temp. Heat Index Dew Point Humidity Pressure Visibility Wind Dir Wind Speed Gust Speed Precip Events Conditions
12:53 AM 77.0 °F - 73.0 °F 88% 30.01 in 10.0 mi SSW 3.5 mph - N/A   Clear
1:53 AM 75.9 °F - 73.0 °F 91% 30.01 in 10.0 mi Calm Calm - N/A   Clear
2:53 AM 75.9 °F - 73.0 °F 91% 30.00 in 9.0 mi Calm Calm - N/A   Clear
3:53 AM 75.0 °F - 72.0 °F 90% 30.01 in 7.0 mi Calm Calm - N/A   Clear
4:53 AM 75.0 °F - 72.0 °F 90% 30.02 in 7.0 mi Calm Calm - N/A   Clear
5:53 AM 75.0 °F - 72.0 °F 90% 30.03 in 7.0 mi Calm Calm - N/A   Partly Cloudy
6:53 AM 77.0 °F - 73.0 °F 88% 30.05 in 8.0 mi Calm Calm - N/A   Partly Cloudy
7:53 AM 80.1 °F 84.5 °F 73.9 °F 81% 30.06 in 10.0 mi Calm Calm - N/A   Partly Cloudy
8:53 AM 84.9 °F 91.4 °F 73.0 °F 67% 30.06 in 10.0 mi Variable 5.8 mph - N/A   Partly Cloudy
9:53 AM 87.1 °F 94.5 °F 73.0 °F 63% 30.06 in 10.0 mi West 5.8 mph - N/A   Scattered Clouds
10:53 AM 89.1 °F 96.0 °F 72.0 °F 57% 30.07 in 10.0 mi West 8.1 mph - N/A   Mostly Cloudy
11:53 AM 91.0 °F 98.2 °F 72.0 °F 53% 30.06 in 10.0 mi West 8.1 mph - N/A   Partly Cloudy
12:53 PM 93.0 °F 99.0 °F 70.0 °F 47% 30.05 in 10.0 mi West 6.9 mph - N/A   Scattered Clouds
1:53 PM 95.0 °F 99.0 °F 66.9 °F 40% 30.04 in 10.0 mi WNW 6.9 mph - N/A   Partly Cloudy
2:53 PM 96.1 °F 96.0 °F 60.1 °F 30% 30.01 in 10.0 mi WNW 10.4 mph - N/A   Partly Cloudy
3:53 PM 93.0 °F 97.9 °F 69.1 °F 45% 29.99 in 10.0 mi SW 8.1 mph - N/A   Partly Cloudy
4:53 PM 95.0 °F 99.0 °F 66.9 °F 40% 29.98 in 10.0 mi SW 10.4 mph - N/A   Scattered Clouds
5:53 PM 93.9 °F 97.0 °F 66.0 °F 40% 29.96 in 10.0 mi WSW 10.4 mph - N/A   Scattered Clouds
6:53 PM 91.0 °F 95.2 °F 68.0 °F 47% 29.96 in 10.0 mi SW 8.1 mph - N/A   Partly Cloudy
7:53 PM 86.0 °F 90.7 °F 70.0 °F 59% 29.96 in 10.0 mi SSW 5.8 mph - N/A   Partly Cloudy
8:53 PM 82.0 °F 86.3 °F 71.1 °F 69% 29.96 in 10.0 mi SSW 5.8 mph - N/A   Clear
9:53 PM 80.1 °F 83.6 °F 71.1 °F 74% 29.97 in 10.0 mi SSW 3.5 mph - N/A   Clear
10:53 PM 80.1 °F 83.6 °F 71.1 °F 74% 29.96 in 10.0 mi SSW 4.6 mph - N/A   Clear
11:53 PM 77.0 °F - 71.1 °F 82% 29.96 in 10.0 mi SW 3.5 mph - N/A   Clear